This is the latest recevied weather packets stored in our database for station/object N0FDH. If no packets are shown the sender has not sent any weather packets the latest 10 day(s).
| Time | Temp. | Humidity | Pressure | Rain* | Wind** | Luminosity | Snow |
|---|---|---|---|---|---|---|---|
| 1777500003 | 8.89° C | 47% | 1016.2 hPa | 0 mm | - | 117 W/m² | - |
| 1777499699 | 8.33° C | 47% | 1016.3 hPa | 0 mm | - | 141 W/m² | - |
| 1777499396 | 8.33° C | 41% | 1016.3 hPa | 0 mm | - | 161 W/m² | - |
| 1777499095 | 8.33° C | 44% | 1016.3 hPa | 0 mm | - | 143 W/m² | - |
| 1777498790 | 8.89° C | 43% | 1016.3 hPa | 0 mm | - | 171 W/m² | - |
| 1777498487 | 8.89° C | 46% | 1016 hPa | 0 mm | - | 122 W/m² | - |
| 1777498183 | 8.33° C | 43% | 1016.4 hPa | 0 mm | - | 149 W/m² | - |
| 1777497881 | 8.33° C | 47% | 1016.4 hPa | 0 mm | - | 139 W/m² | - |
| 1777497577 | 8.89° C | 41% | 1016.4 hPa | 0 mm | - | 147 W/m² | - |
| 1777497273 | 8.33° C | 43% | 1016.3 hPa | 0 mm | - | 141 W/m² | - |
| 1777496970 | 8.33° C | 45% | 1016.6 hPa | 0 mm | - | 144 W/m² | - |
| 1777496667 | 8.33° C | 41% | 1016.2 hPa | 0 mm | - | 134 W/m² | - |
| 1777496363 | 8.33° C | 42% | 1016.3 hPa | 0 mm | - | 137 W/m² | - |
| 1777496060 | 8.33° C | 45% | 1016.5 hPa | 0 mm | - | 132 W/m² | - |
| 1777495756 | 8.89° C | 45% | 1016.4 hPa | 0 mm | - | 125 W/m² | - |
| 1777495452 | 8.89° C | 40% | 1016.3 hPa | 0 mm | - | 139 W/m² | - |
| 1777495148 | 8.33° C | 43% | 1016.3 hPa | 0 mm | - | 147 W/m² | - |
| 1777494845 | 8.33° C | 39% | 1016.3 hPa | 0 mm | - | 140 W/m² | - |
| 1777494543 | 8.89° C | 39% | 1016.4 hPa | 0 mm | - | 139 W/m² | - |
| 1777494240 | 8.89° C | 43% | 1016.5 hPa | 0 mm | - | 115 W/m² | - |
| 1777493937 | 8.89° C | 39% | 1016.4 hPa | 0 mm | - | 150 W/m² | - |
| 1777493635 | 8.89° C | 38% | 1016.4 hPa | 0 mm | - | 172 W/m² | - |
| 1777493332 | 8.89° C | 45% | 1016.4 hPa | 0 mm | - | 217 W/m² | - |
| 1777493028 | 8.89° C | 40% | 1016.6 hPa | 0 mm | - | 172 W/m² | - |
| 1777492725 | 8.89° C | 40% | 1016.4 hPa | 0 mm | - | 228 W/m² | - |
* Rain latest hour (hover to see other rain measurements)
** Current wind speed in m/s (hover to see current wind gust speed)